www.pogodaiklimat.ru

Погода и климат >> Архив погоды >> Канада >> Coral Harbour Arpt


ПОГОДА в Coral Harbour Arpt

  • Прогноз погоды в Coral Harbour Arpt
  • Монитор погоды в Coral Harbour Arpt
  • Климат города

АРХИВ ПОГОДЫ в Coral Harbour Arpt

Время (UTC), дата Ветер
(напр.,м/с)
 
Видим.   Явления Облачность Т
(С)
Тd
(С)
f
(%)
Тe
(С)
Тes
(С)
Комфортность P
(гПа)
Po
(гПа)
Тmin
(С)
Tmax
(С)
R
(мм)
R24
(мм)
S
(см)
15 11.12 ЮЗ 4 16 км 10/10 300 м
[]
-14.6 -16.5 85 -22 -22 1008.7 1000.5
18 11.12 ЮЗ 5 4800 м слабый снег 10/10 300 м
[Sc]
-14.1 -15.8 87 -22 -22 1006.1 997.9 -17.0 -12.2 0.2 37
21 11.12 ЮЗ 9 4800 м 10/10 300 м
[]
-11.9 -13.7 86 -23 -23 1003.8 995.6
00 12.12 0 6000 м слабый снег 10/10 300 м
[Sc]
-12.3 -14.2 86 1002.1 993.9 0.4 37
03 12.12 ЮЗ 6 9000 м 10/10 300 м
[]
-12.4 -14.2 86 -21 -21 1000.7 992.5
06 12.12 ЮЗ 4 9000 м слабый снег 10/10 300 м
[Sc]
-12.7 -14.5 86 -20 -20 999.5 991.3 0.4 191
09 12.12 ЮЗ 4 9000 м 10/10 300 м
[]
-11.8 -13.4 88 -19 -19 999.6 991.5
12 12.12 ЮЗ 4 19 км слабый снег 10/10 300 м
[Sc]
-11.3 -13.0 87 -18 -18 999.3 991.2 -12.8 0.2 37
15 12.12 ЮЗ 2 400 м н/о -11.4 -12.6 91 -16 -16 1000.2 992.1
18 12.12 З 2 4800 м слабый снег {туман} 10/10 100 м
[Sc]
-11.2 -12.6 89 -16 -16 1000.6 992.4 -11.0 0.0 37
21 12.12 В 1 200 м н/о -11.0 -12.4 89 -13 -13 1002.1 993.9
00 13.12 1200 м дымка {снег, туман} н/о -10.6 -11.9 90 -15 -15 1002.7 994.5 -12.8 -10.6 0.0 37
03 13.12 В 4 1200 м 6/6 50 м
[]
-10.2 -11.6 89 -17 -17 1002.5 994.4
06 13.12 1200 м слабый снег {туман} н/о -9.3 -10.5 91 -15 -15 1002.1 994.0 -12.8 -9.2 8
09 13.12 Ю 4 1200 м 6/6 50 м
[]
-8.7 -9.8 92 -15 -15 1002.3 994.2
12 13.12 ЮВ 3 19 км слабый снег 10/10 100 м
[St]
-9.0 -10.2 91 -15 -15 1001.9 993.8 -9.2 37
15 13.12 В 5 9000 м 10/10 100 м
[]
-8.9 -10.0 92 -16 -16 1001.7 993.6
18 13.12 ЮВ 5 9000 м слабая переохл. морось (гололёд) {снег, туман} 10/10 50 м
[Frnb]
-7.8 -8.9 92 -15 -15 1000.9 992.8 0.0 37
21 13.12 ЮВ 7 4800 м 10/10 50 м
[]
-7.4 -8.4 93 -16 -16 1000.6 992.5
00 14.12 ЮВ 7 4800 м слабый снег {морось} 10/10 50 м
[Sc]
-7.2 -8.2 93 -16 -16 1000.1 992.0 -6.9 0.0 37
03 14.12 ЮВ 6 19 км 10/10 200 м
[]
-7.5 -8.6 92 -16 -16 998.7 990.6
06 14.12 ЮВ 7 19 км слабый снег 10/10 200 м
[St]
-7.6 -8.6 93 -17 -17 997.6 989.5 41
09 14.12 ЮВ 6 3200 м 10/10 200 м
[]
-7.3 -8.3 93 -16 -16 996.6 988.6
12 14.12 ЮВ 8 3200 м слабый снег 10/10 100 м
[St]
-6.9 -7.9 93 -16 -16 995.8 987.9 -7.7 2 39
15 14.12 В 6 4800 м 10/10 100 м
[]
-6.8 -7.8 93 -15 -15 994.4 986.5
18 14.12 ЮВ 5 1200 м снежные зёрна {морось} 10/10 50 м
[Cu med, cong]
-5.6 -6.4 94 -13 -13 993.1 985.2 -8.0 -5.6 0.2 37
21 14.12 ЮЗ 4 24 км 10/10 200 м
[]
-7.0 -8.0 93 -13 -13 993.5 985.6
00 15.12 ЮЗ 4 24 км {морось, туман} 10/10 200 м
[St]
-9.4 -10.7 90 -16 -16 993.8 985.8 -9.4 -5.2 0.0 37
03 15.12 ЮЗ 5 24 км 10/10 300 м
[]
-11.4 -12.9 89 -19 -19 994.1 986.0
06 15.12 ЮЗ 4 24 км 10/10 300 м
[St]
-11.8 -13.3 89 -19 -19 994.3 986.2 -11.9 -5.2 70
09 15.12 ЮЗ 3 24 км 10/10 300 м
[]
-12.4 -14.0 88 -18 -18 995.3 987.2
12 15.12 ЮЗ 1 24 км слабый снег 10/10 300 м
[Sc]
-12.1 -13.6 89 -14 -14 996.3 988.2 -12.9 -5.2 39
15 15.12 З 4 19 км 10/10 1000 м
[]
-12.7 -14.3 88 -20 -20 997.2 989.1
18 15.12 З 3 12 км слабый снег 10/10 200 м
[Sc]
-13.1 -14.7 88 -19 -19 998.7 990.6 -14.8 -11.7 0.4 37
21 15.12 ЮЗ 2 9000 м 10/10 300 м
[]
-13.7 -15.4 87 -18 -18 1000.1 991.9
00 16.12 ЮЗ 3 24 км слабый снег 10/10 300 м
[Sc]
-13.4 -15.1 87 -19 -19 1001.4 993.2 -14.8 -11.7 0.2 37
03 16.12 ЮЗ 4 9000 м 10/10 300 м
[]
-13.5 -15.1 88 -21 -21 1001.9 993.7
06 16.12 З 2 9000 м слабый снег 10/10 100 м
[St]
-14.3 -16.1 86 -19 -19 1002.7 994.5 -14.8 -11.7 0.4 38
09 16.12 С 1 800 м н/о -16.2 -18.2 85 -17 -17 1002.8 994.6
12 16.12 С 1 400 м туман {снег} н/о -16.7 -18.7 84 -17 -17 1003.1 994.9 -16.9 -11.7 0.0 38
15 16.12 С 2 19 км 10/10 300 м
[]
-15.7 -17.6 85 -21 -21 1002.6 994.4
18 16.12 С 6 24 км слабый снег {туман} 10/10 600 м
[Sc]
-12.0 -13.5 89 -21 -21 1002.0 993.8 -16.9 -11.8 38
21 16.12 СВ 7 24 км 10/10 1000 м
[]
-10.7 -12.0 90 -20 -20 1001.8 993.6
00 17.12 С 11 24 км слабый снег 10/10 1000 м
[Sc]
-10.5 -11.8 90 -22 -22 1001.8 993.6 -16.9 -10.4 38
03 17.12 С 10 19 км 9/9 1500 м
[]
-12.1 -13.7 88 -23 -23 1002.2 994.0
06 17.12 СЗ 7 24 км позёмок {снег} 4/4 1500 м
[Sc Ac As]
-14.4 -16.3 85 -25 -25 1001.8 993.6 -16.9 -10.4 0.0 231
09 17.12 С 14 6000 м 4/4 1500 м
[]
-14.5 -16.4 85 -28 -28 1001.8 993.6
12 17.12 С 15 6000 м метель 4/0
[Ac As Ci fib]
-13.7 -15.7 85 -27 -27 1002.6 994.4 -15.0 -10.4 38
15 17.12 С 4 19 км 6/6 300 м
[]
-15.3 -17.6 83 -23 -23 1004.2 996.0
18 17.12 Ю 1 24 км {метель} 6/1 300 м
[Sc Ac lent]
-15.3 -18.2 78 -18 -18 1005.4 997.2 -15.4 -13.3
21 17.12 СЗ 8 24 км 6/6 600 м
[]
-16.6 -20.5 72 -28 -28 1006.9 998.6
00 18.12 СЗ 8 24 км 1/0
[Ac lent]
-19.3 -22.5 76 -31 -31 опасность
обморожения
1007.9 999.6 -21.0 -13.3
03 18.12 З 2 24 км 1/0
[]
-19.9 -22.8 78 -26 -26 1007.8 999.5
06 18.12 СЗ 5 24 км 4/0
[Ac As Ci fib]
-20.4 -23.7 75 -30 -30 1008.5 1000.2 -21.0 -13.3 143
09 18.12 С 6 24 км 4/0 2000 м
[]
-19.9 -23.3 74 -30 -30 1008.2 999.9
12 18.12 С 6 24 км 4/0 2000 м
[Ac As]
-21.9 -25.1 75 -33 -33 опасность
обморожения
1007.7 999.3 -23.1 -13.3 38

 

Местоположение метеостанции Coral Harbour Arpt (Канада): широта 64.20 долгота -83.36 высота над уровнем моря 64 м.

В архиве по умолчанию представлена погода в Coral Harbour Arpt за последнюю неделю. Архивные данные за месяц целиком и за предыдущие месяцы, начиная с января 2011 года, Вы можете получить, выбрав интересующий диапазон дат из раскрывающегося списка и нажав кнопку "Ввод!".


*Определитесь, кто Вы:
робот инопланетянин человек

Внимание! Время в таблицах - всемирное. Для получения местного времени необходимо прибавить поправку, которая в Coral Harbour Arpt равна -5 ч.

Смотрите также архив погоды в соседних городах и на ближайших метеорологических станциях:

Погода в Cape Dorset Climate (Канада) (330 км)
Погода в Wager Bay (Канада) (340 км)
Погода в Rankin Inlet (Канада) (460 км)
Погода в Hall Beach Climate (Канада) (518 км)
Погода в Pelly Bay (Канада) (549 км)
Погода в Kugaaruk climate (Канада) (560 км)
Погода в Rowley Island (Канада) (575 км)
Погода в Parc National Des Pingualuit (Канада) (589 км)
Погода в Baker Lake Climate (Канада) (610 км)
Погода в Baker Lake Airport (Канада) (613 км)

Пояснения к столбцам:

Ветер - указаны скорость ветра в м/с - средняя за 10 мин, порывы в срок и между сроками (в фигурных скобках) и направление, откуда дует ветер: С - северный, СВ - северо-восточный, В - восточный, ЮВ - юго-восточный, Ю - южный, ЮЗ - юго-западный, З - западный, СЗ - северо-западный.
Видимость - горизонтальная дальность видимости в метрах или километрах. При видимости от 1 до 10 км при отсутствии осадков обычно наблюдается дымка, при ухудшении видимости до 1 км и менее - туман. В сухую погоду видимость может ухудшаться дымом, пылью или мглою.
Явления - указаны атмосферные явления, наблюдавшиеся в срок или в последний час перед сроком; фигурными скобками обозначены явления, наблюдавшиеся между сроками (за 1-3 часа до срока); квадратными скобками обозначены град или гололедные отложения с указанием их диаметра в мм.
Облачность - указаны через наклонную черту общая и нижняя облачность в баллах и высота нижней границы облаков в метрах; квадратными скобками обозначены формы облаков: Ci - перистые, Cs - перисто-слоистые, Cc - перисто-кучевые, Ac - высококучевые, As - высокослоистые, Sc - слоисто-кучевые, Ns - слоисто-дождевые, Cu - кучевые, Cb - кучево-дождевые. Подробнее классификацию облаков см. в Атласе облаков (PDF).
T - Температура воздуха - температура, измеренная на высоте 2 м над землей.
Td - Температура точки росы - температура, при понижении до которой содержащийся в воздухе водяной пар достигнет насыщения.
f - Относительная влажность воздуха - влажноcть воздуха, измеренная на высоте 2 м над землей.
Te - Эффективная температура - температура, которую ощущает одетый по сезону человек в тени. Характеристика душности погоды. При расчете учитывается влияние влажности воздуха и скорости ветра на теплоощущения человека.
Tes - Эффективная температура на солнце - температура, которую ощущает человек, с поправкой на солнечный нагрев. Характеристика знойности погоды. Зависит от высоты солнца над горизонтом, облачности и скорости ветра. Ночью, в пасмурную погоду, а также при ветре 12 м/с и более поправка равна нулю.
P - Атмосферное давление - приведенное к уровню моря атмосферное давление.
Po - Атмосферное давление - измеренное на уровне метеостанции атмосферное давление.
Tmin - Минимальная температура - минимум температуры воздуха на высоте 2 м над землей.
Tmax - Максимальная температура - максимум температуры воздуха на высоте 2 м над землей.
R - Количество осадков - Количество выпавших осадков за период времени, мм. При наведении курсора мыши на число - период времени, за который выпало указанное количество осадков.
R24 - Количество осадков - Количество выпавших осадков за 24 часа, мм.
S - Снежный покров - Высота снежного покрова, см. При наведении курсора мыши на число - состояние снежного покрова и степень покрытия местности в баллах.